Track LEMUR 2 FURIAUS now! 10-day predictions LEMUR 2 FURIAUS is classified as:
1 42840U 17042R 22136.88621113 .00002446 00000-0 24016-3 0 9998 2 42840 97.4356 356.3045 0014481 102.2960 257.9883 14.92964455263549